Regional Weather Roundup
Issued by NWS

Home | Current Version | Previous Version | Graphics & Text | Print | Product List | Glossary On
Versions: 1 2 3 4 5 6 7 8 9 10 11 12 13 14 15 16 17 18 19 20 21 22 23 24 25 26 27 28 29 30 31 32 33 34 35 36 37 38 39 40 41 42 43 44 45 46 47 48 49 50
000
ASUS43 KOAX 281810
RWRNE

WEATHER ROUNDUP FOR NEBRASKA
NATIONAL WEATHER SERVICE OMAHA NE
100 PM CDT SAT MAY 28 2016

NOTES: SATELLITE DATA IS BEING USED TO AUGMENT CLOUD COVER ABOVE
       12000 FEET.
       "FAIR" INDICATES FEW OR NO CLOUDS BELOW 12,000 FEET WITH NO
       SIGNIFICANT WEATHER AND/OR OBSTRUCTIONS TO VISIBILITY.

  * THESE STATIONS DO NOT REPORT WEATHER SUCH AS RAIN...SNOW OR FOG.

NEZ001>004-019>022-054>056-281900-
NEBRASKA PANHANDLE

CITY           SKY/WX    TMP DP  RH WIND       PRES   REMARKS
SCOTTSBLUFF    SUNNY     70  43  37 VRB3      29.96F
6HR MIN TEMP:  40; 6HR MAX TEMP:  71;

ALLIANCE       SUNNY     68  45  43 W9        29.95S
6HR MIN TEMP:  36; 6HR MAX TEMP:  69;

CHADRON        MOSUNNY   70  46  42 CALM      29.93S
6HR MIN TEMP:  38; 6HR MAX TEMP:  70;

KIMBALL        MOSUNNY   66  42  41 NE3       30.01F
SIDNEY         SUNNY     67  45  45 CALM      30.00S
6HR MIN TEMP:  41; 6HR MAX TEMP:  68;

$$

NEZ057>060-069>072-079>082-281900-
SOUTHWEST NEBRASKA

CITY           SKY/WX    TMP DP  RH WIND       PRES   REMARKS
NORTH PLATTE   PTSUNNY   70  51  51 NW7       29.93S
6HR MIN TEMP:  50; 6HR MAX TEMP:  70;

IMPERIAL       MOSUNNY   68  50  52 W6        29.97S
6HR MIN TEMP:  49; 6HR MAX TEMP:  68;

LEXINGTON      MOSUNNY   69  55  60 NW12G17   29.91S
MCCOOK         MOSUNNY   69  50  50 W12       29.95R
6HR MIN TEMP:  51; 6HR MAX TEMP:  71;

OGALLALA       SUNNY     69  48  47 W3        29.96R
$$

NEZ005>010-023>029-035>040-094-281900-
NORTH CENTRAL NEBRASKA

CITY           SKY/WX    TMP DP  RH WIND       PRES   REMARKS
VALENTINE      MOSUNNY   69  49  48 N13       29.90R
6HR MIN TEMP:  53; 6HR MAX TEMP:  70;

AINSWORTH      CLOUDY    66  51  59 N12G18    29.90S
BROKEN BOW     PTSUNNY   67  53  61 NW13      29.90R
6HR MIN TEMP:  56; 6HR MAX TEMP:  68;

O`NEILL        CLOUDY    59  57  92 CALM      29.86R
ORD            MOSUNNY   68  57  68 NW18      29.86R
6HR MIN TEMP:  56; 6HR MAX TEMP:  68; 6HR PCP: TRACE;

THEDFORD       PTSUNNY   69  51  53 NW9       29.92S
$$

NEZ041-046>049-061>064-073>077-083>087-281900-
SOUTH CENTRAL NEBRASKA

CITY           SKY/WX    TMP DP  RH WIND       PRES   REMARKS
GRAND ISLAND   PTSUNNY   67  56  67 NW14      29.87R
6HR MIN TEMP:  56; 6HR MAX TEMP:  70; 6HR PCP:  0.03;

AURORA         PTSUNNY   69  57  66 NW14G23   29.86R
HASTINGS       PTSUNNY   71  53  52 NW18      29.88R
6HR MIN TEMP:  56; 6HR MAX TEMP:  71; 6HR PCP:  0.01;

HEBRON         PTSUNNY   69  56  63 W10G18    29.88S
HOLDREGE       MOSUNNY   69  53  56 NW12      29.91S
KEARNEY *      MOSUNNY   70  52  52 NW16      29.90S
YORK           PTSUNNY   70  57  64 NW15G21   29.85R
$$

NEZ011>018-030>034-042>045-281900-
NORTHEAST NEBRASKA

CITY           SKY/WX    TMP DP  RH WIND       PRES   REMARKS
NORFOLK        LGT RAIN  63  58  83 NW20G26   29.78R
6HR MIN TEMP:  58; 6HR MAX TEMP:  63; 6HR PCP:  0.12;

ALBION         CLOUDY    62  58  86 NW16G23   29.84S
BLAIR          CLOUDY    66  57  74 SW22G32   29.80R
FREMONT        CLOUDY    65  58  79 SW18      29.80R
TEKAMAH        CLOUDY    67  57  70 SW21      29.76S
6HR MIN TEMP:  61; 6HR MAX TEMP:  71;

WAYNE          CLOUDY    65  60  82 N5        29.75R
$$

NEZ050>053-065>068-078-088>093-281900-
SOUTHEAST NEBRASKA

CITY           SKY/WX    TMP DP  RH WIND       PRES   REMARKS
LINCOLN        PTSUNNY   72  55  55 W18G26    29.83S
6HR MIN TEMP:  60; 6HR MAX TEMP:  73;

OMAHA EPPLEY   PTSUNNY   71  57  61 W16       29.78S
6HR MIN TEMP:  62; 6HR MAX TEMP:  72;

BEATRICE       MOSUNNY   69  59  69 W13G20    29.86R
FALLS CITY     PTSUNNY   71  60  68 W17G24    29.84R
6HR MIN TEMP:  60; 6HR MAX TEMP:  72; 6HR PCP:  0.05;

NEBRASKA CITY  PTSUNNY   70  60  72 W12       29.83S
PLATTSMOUTH    CLOUDY    71  60  68 SW15      29.82R
$$

NEZ044-045-051>053-067-281900-
OMAHA AREA

CITY           SKY/WX    TMP DP  RH WIND       PRES   REMARKS
OMAHA EPPLEY   PTSUNNY   71  57  61 W16       29.78S
6HR MIN TEMP:  62; 6HR MAX TEMP:  72;

BLAIR          CLOUDY    66  57  74 SW22G32   29.80R
FREMONT        CLOUDY    65  58  79 SW18      29.80R
MILLARD        LGT RAIN  67  56  67 W14G20    29.81R
OFFUTT AFB     PTSUNNY   70  58  65 W12G17    29.79S
PLATTSMOUTH    CLOUDY    71  60  68 SW15      29.82R
WAHOO          CLOUDY    65  59  81 W14       29.81S
$$




USA.gov is the U.S. government's official web portal to all federal, state and local government web resources and services.